sat.trackr.live / text

‹ back to catalog

STARLINK-5786

NORAD 56032 · 2023-042AY

PAYLOAD ACTIVE UNKNOWN

§ Identity

Operator
Country
US
Launch date
2023-03-24
Launch site
AFETR
Launch vehicle
Mass (kg)
RCS (m²)

Purposes: comms

External: N2YO · Heavens-Above · Gunter

§ Orbital elements

Epoch: 2026-09-20T14:32:01.135680Z

Period
94.27 min
Inclination
43.0051°
Eccentricity
0.0002070
Mean motion
15.27585100 rev/d
Perigee alt
481.6 km
Apogee alt
484.5 km
Semi-major
6,861.2 km
B*
2.6811e-5
RAAN
24.5838°
Arg perigee
279.5289°
Mean anomaly
80.5329°
Rev number
19,284

§ Raw data

STARLINK-57861 56032U 23042AY  26263.60556870  .00000475  00000+0  26811-4 0  99902 56032  43.0051  24.5838 0002070 279.5289  80.5329 15.27585100192847

JSON: /api/v1/satellites/56032 · /tle

For live sub-satellite position, see the globe view (requires WebGL).

§ Visibility from observer

Set your observer location to see the next 7 days of passes ≥ 10°. The values pass through the URL so the page stays shareable.

No JS? Fill the form by hand. The geolocation button needs JavaScript.